Flag for Germany Weather past 2 weeks in Ingolstadt, Bavaria, Germany

Now
70 °F

Mild.


Feels Like: 70 °F
Forecast: 52 / 62 °F
Wind: 5 mph from Northwest

Location: Ingolstadt Airport

Current Time: Aug 30, 2014 at 8:15:57 PM

Latest Report: Aug 30, 2014 at 7:20 PM


Visibility: N/A

Pressure: 30.07 "Hg

Humidity: 57%

Dew point: 54 °F

Location of IngolstadtLocation

Historic Weather in Ingolstadt — Graph

°F

Ingolstadt temperature yesterday

Maximum temperature yesterday: 70 °F (at 4:20 PM)
Minimum temperature yesterday: 52 °F (at 6:20 AM)
Average temperature yesterday: 62 °F

Past Weeks' High & Low Weather Summary

 TemperatureHumidityPressure
High72 °F (Aug 28, 3:20 PM)100% (Aug 21, 3:20 AM)30.15 "Hg (Aug 21, 3:20 AM)
Low45 °F (Aug 25, 2:20 AM)40% (Aug 21, 4:20 PM)29.71 "Hg (Aug 26, 8:20 AM)
Average59 °F76%30.00 "Hg
* Reported Aug 15 6:20 PM — Aug 30 6:20 PM, Ingolstadt, Weather by CustomWeather, © 2014

Note: Actual official high and low records may vary slightly from our data, if they occured in-between our weather recording intervals... More about our weather records

Advertising

Ingolstadt weather history for previous 24 hours

 ConditionsComfort  
Time TempWeatherWind HumidityBarometerVisibility
6:20 PM
Aug 30
72 °FMild.7 mph50%30.07 "HgN/A
5:20 PM72 °FMild.7 mph53%30.07 "HgN/A
4:20 PM72 °FMild.7 mph53%30.07 "HgN/A
3:20 PM72 °FMild.8 mph57%30.07 "HgN/A
2:20 PM72 °FMild.8 mph61%30.09 "HgN/A
1:20 PM70 °FMild.8 mph64%30.09 "HgN/A
12:20 PM70 °FMild.3 mph69%30.12 "HgN/A
11:20 AM66 °FMild.5 mph78%30.12 "Hg5 mi
10:20 AM64 °FMild.5 mph83%30.12 "Hg6 mi
9:20 AM63 °FBroken clouds.3 mph88%30.12 "HgN/A
8:20 AM63 °FMild.8 mph94%30.09 "Hg5 mi
7:20 AM61 °FCool.5 mph100%30.09 "Hg3 mi
6:20 AM61 °FCool.5 mph100%30.09 "Hg3 mi
5:20 AM61 °FCool.3 mph100%30.07 "Hg3 mi
4:20 AM63 °FMild.3 mph94%30.07 "Hg5 mi
3:20 AM63 °FMild.2 mph94%30.07 "Hg5 mi
2:20 AM63 °FMild.2 mph94%30.07 "Hg6 mi
1:20 AM63 °FMild.No wind94%30.07 "Hg6 mi
12:20 AM63 °FMild.2 mph94%30.07 "Hg6 mi
11:20 PM
Aug 29
63 °FMild.No wind94%30.07 "Hg6 mi
10:20 PM63 °FMild.2 mph94%30.07 "HgN/A
8:20 PM64 °FMild.2 mph88%30.04 "Hg5 mi
Weather by CustomWeather, © 2014

See weather overviewHow to use our weather pages